Regional Weather Roundup
Issued by NWS

Home | Current Version | Previous Version | Graphics & Text | Print | Product List | Glossary On
Versions: 1 2 3 4 5 6 7 8 9 10 11 12 13 14 15 16 17 18 19 20 21 22 23 24 25 26 27 28 29 30 31 32 33 34 35 36 37 38 39 40 41 42 43 44 45 46 47 48 49 50
000
ASUS43 KOAX 281010
RWRNE

WEATHER ROUNDUP FOR NEBRASKA
NATIONAL WEATHER SERVICE OMAHA NE
400 AM CST WED JAN 28 2015

NOTES: SATELLITE DATA IS BEING USED TO AUGMENT CLOUD COVER ABOVE
       12000 FEET.
       "FAIR" INDICATES FEW OR NO CLOUDS BELOW 12,000 FEET WITH NO
       SIGNIFICANT WEATHER AND/OR OBSTRUCTIONS TO VISIBILITY.

  * THESE STATIONS DO NOT REPORT WEATHER SUCH AS RAIN...SNOW OR FOG.

NEZ001>004-019>022-054>056-281100-
NEBRASKA PANHANDLE

CITY           SKY/WX    TMP DP  RH WIND       PRES   REMARKS
SCOTTSBLUFF      N/A    N/A N/A N/A MISG      29.93F
ALLIANCE       CLOUDY    39  30  70 W6        29.89F WCI  35
CHADRON        MOCLDY    39  30  70 S6        29.86F WCI  35
KIMBALL        CLOUDY    44  29  55 NW18      29.95S
SIDNEY         MOCLDY    39  27  62 NW8       29.95F WCI  33
$$

NEZ057>060-069>072-079>082-281100-
SOUTHWEST NEBRASKA

CITY           SKY/WX    TMP DP  RH WIND       PRES   REMARKS
NORTH PLATTE   CLEAR     28  25  88 NW7       29.87S WCI  21
IMPERIAL       PTCLDY    42  29  59 N18       29.88S
LEXINGTON      CLEAR     30  27  88 W8        29.83F WCI  22
MCCOOK         PTCLDY    32  27  81 NW3       29.83F
OGALLALA       PTCLDY    40  31  68 CALM      29.90S
$$

NEZ005>010-023>029-035>040-094-281100-
NORTH CENTRAL NEBRASKA

CITY           SKY/WX    TMP DP  RH WIND       PRES   REMARKS
VALENTINE      CLEAR     35  29  78 SW9       29.80F WCI  28
AINSWORTH      CLEAR     39  29  67 SW8       29.80F WCI  34
BROKEN BOW     CLEAR     34  29  82 N3        29.83F
O`NEILL        CLEAR     33  32  93 S6        29.81S WCI  28
ORD            PTCLDY    26  24  92 S5        29.82F WCI  20
THEDFORD       CLEAR     37  30  77 W6        29.84F WCI  32
$$

NEZ041-046>049-061>064-073>077-083>087-281100-
SOUTH CENTRAL NEBRASKA

CITY           SKY/WX    TMP DP  RH WIND       PRES   REMARKS
GRAND ISLAND   CLEAR     27  24  89 N3        29.85F
AURORA         CLEAR     30  28  90 SE6       29.84F WCI  24
HASTINGS       CLEAR     28  23  81 CALM      29.82F
HEBRON         CLEAR     34  31  89 S5        29.85F WCI  30
HOLDREGE       CLEAR     29  25  85 CALM      29.82F
KEARNEY *      CLEAR     34  27  75 SW3       29.82F
YORK           CLEAR     32  28  86 E7        29.85F WCI  26
$$

NEZ011>018-030>034-042>045-281100-
NORTHEAST NEBRASKA

CITY           SKY/WX    TMP DP  RH WIND       PRES   REMARKS
NORFOLK        CLEAR     34  29  82 SE7       29.85F WCI  28
ALBION         FAIR      30  28  90 SE3       29.85F
BLAIR          PTCLDY    36  31  80 SE10      29.90F WCI  29
COLUMBUS *     CLEAR     32  23  69 E5        29.89F WCI  27
FREMONT        MOCLDY    36  31  81 SE8       29.90F WCI  30
TEKAMAH        MOCLDY    34  29  82 SE8       29.92F WCI  27
WAYNE          MOCLDY    34  30  86 S5        29.87F WCI  30
$$

NEZ050>053-065>068-078-088>093-281100-
SOUTHEAST NEBRASKA

CITY           SKY/WX    TMP DP  RH WIND       PRES   REMARKS
LINCOLN        PTCLDY    36  28  73 E6        29.90F WCI  31
OMAHA EPPLEY   PTCLDY    36  30  79 SE13      29.93F WCI  27
BEATRICE       PTCLDY    35  29  78 E5        29.87F WCI  31
FALLS CITY     CLEAR     34  28  79 SE8       29.93F WCI  27
NEBRASKA CITY  PTCLDY    36  27  72 SE9       29.92F WCI  29
PLATTSMOUTH    PTCLDY    35  29  80 SE10      29.91F WCI  27
$$

NEZ044-045-051>053-067-281100-
OMAHA AREA

CITY           SKY/WX    TMP DP  RH WIND       PRES   REMARKS
OMAHA EPPLEY   PTCLDY    36  30  79 SE13      29.93F WCI  27
BLAIR          PTCLDY    36  31  80 SE10      29.90F WCI  29
FREMONT        MOCLDY    36  31  81 SE8       29.90F WCI  30
MILLARD        PTCLDY    36  31  81 SE7       29.92F WCI  31
OFFUTT AFB     PTCLDY    35  29  81 E12       29.92F WCI  26
PLATTSMOUTH    PTCLDY    35  29  80 SE10      29.91F WCI  27
WAHOO          FAIR      31  27  83 SE8       29.90F WCI  24
$$


USA.gov is the U.S. government's official web portal to all federal, state and local government web resources and services.